Home   Weather   Foz do Iguaçu   Past weeks

Flag for Brazil Past Weather in Foz do Iguaçu, Paraná, Brazil — Yesterday and Last 2 Weeks

Now
73 °F

Passing clouds.


Feels Like: 70 °F
Forecast: 71 / 90 °F
Wind: 7 mph from Southwest

Location: Iguazu Aerodrome

Current Time: Feb 27, 2017 at 9:59:58 pm

Latest Report: Feb 27, 2017 at 9:00 pm


Visibility: N/A

Pressure: 29.86 "Hg

Humidity: 94%

Dew Point: 72 °F

Location of Foz do IguaçuLocation

Past Weather in Foz do Iguaçu — Graph

°F

Foz do Iguaçu Temperature Yesterday

Maximum temperature yesterday: 91 °F (at 2:00 pm)
Minimum temperature yesterday: 70 °F (at 6:00 am)
Average temperature yesterday: 80 °F

High & Low Weather Summary for the Past Weeks

 TemperatureHumidityPressure
High97 °F (Feb 21, 4:00 pm)100% (Feb 13, 12:00 am)30.12 "Hg (Feb 13, 12:00 am)
Low68 °F (Feb 24, 6:00 am)41% (Feb 16, 3:00 pm)29.74 "Hg (Feb 13, 6:00 pm)
Average79 °F82%29.94 "Hg
* Reported Feb 12 9:00 pm — Feb 27 8:00 pm, Foz do Iguaçu, Weather by CustomWeather, © 2017

Note: Actual official high and low records may vary slightly from our data, if they occured in-between our weather recording intervals... More about our weather records

Advertising

Foz do Iguaçu Weather History for the Previous 24 Hours

Scroll right to see more
 ConditionsComfort  
Time TempWeatherWind HumidityBarometerVisibility
8:00 pm
Mon, Feb 27
73 °FPassing clouds.5 mph94%29.83 "HgN/A
7:00 pm73 °FBroken clouds.5 mph100%29.80 "HgN/A
6:00 pm75 °FBroken clouds.5 mph100%29.80 "HgN/A
5:00 pm77 °FThunderstorms. Broken clouds.8 mph100%29.80 "Hg4 mi
4:00 pm82 °FThunderstorms. Partly sunny.17 mph70%29.86 "HgN/A
3:00 pm93 °FPartly sunny.6 mph56%29.83 "HgN/A
2:00 pm91 °FPartly sunny.5 mph59%29.86 "HgN/A
1:00 pm90 °FPartly sunny.8 mph63%29.92 "HgN/A
12:00 pm88 °FSunny.8 mph59%29.92 "HgN/A
11:00 am84 °FSunny.5 mph74%29.95 "Hg10 mi
10:00 am82 °FSunny.6 mph79%29.95 "Hg10 mi
9:00 am75 °FSunny.6 mph89%29.95 "Hg10 mi
8:00 am73 °FSunny.6 mph94%29.92 "Hg10 mi
7:00 am70 °FSunny.7 mph100%29.89 "Hg10 mi
6:00 am72 °FClear.5 mph100%29.89 "Hg6 mi
5:00 am72 °FClear.2 mph100%29.86 "Hg10 mi
4:00 am72 °FClear.5 mph100%29.86 "Hg10 mi
3:00 am73 °FClear.5 mph94%29.89 "Hg10 mi
2:00 am73 °FClear.6 mph94%29.89 "Hg10 mi
1:00 am73 °FClear.3 mph100%29.89 "Hg10 mi
12:00 am75 °FClear.5 mph100%29.92 "Hg10 mi
11:00 pm
Sun, Feb 26
77 °FClear.5 mph94%29.89 "Hg10 mi
10:00 pm77 °FPassing clouds.3 mph94%29.89 "HgN/A
9:00 pm77 °FPassing clouds.5 mph94%29.86 "HgN/A
Weather by CustomWeather, © 2017

See weather overviewHow to use our weather pages